Location: Saratoga Springs
(43.0831°N, 73.7850°W)
Time: 05:37:41
(UTC-04:00)

Vanguard 2 - Pass Details

Date: 20 April 2024
Orbit: 553 x 2914 km, 32.9° (Epoch: 17 May)

Event Time Altitude Azimuth Distance (km) Brightness Sun altitude
Rises 23:08:08 0° 176° (S) 5,152 - -29.8°
Reaches altitude 10° 23:14:28 10° 150° (SSE) 4,711 - -30.4°
Maximum altitude 23:19:23 13° 129° (SE) 4,838 - -30.8°
Drops below altitude 10° 23:24:50 10° 108° (ESE) 5,378 - -31.3°
Exits shadow 23:27:23 - 100° (E) 5,728 11.6 -31.5°
Sets 23:33:24 0° 85° (E) 6,699 12.2 -31.9°
